Temp
60 60 60 60 59 59 59 60 60 60 60 59 60 60 59 59 59 66 65 74 74 70 68 82 83 84 85 83 83 84 72 70 71 67 73 78 79 86 87 84 88 90 90 93 97
60 60 60 60 59 59 59 59 59 60 59 60 60 59 59 59 64 66 75 70 69 70 81 80 78 81 80 79 80 77 71 72 78 78 75 79 81 83 81 82 84 87 92 96 96
60 60 60 59 59 59 59 59 59 59 59 59 59 59 59 62 63 75 73 69 68 71 85 84 85 82 77 79 78 77 71 78 76 78 81 79 79 83 79 76 83 83 88 92 93
60 60 59 59 59 59 59 59 59 59 59 59 58 58 58 65 63 79 72 69 71 84 84 81 80 76 74 72 78 70 76 77 78 80 78 76 80 79 80 80 87 88 90 91 90
59 59 59 59 59 58 59 59 59 59 59 58 58 58 63 64 73 79 70 72 79 82 81 80 77 77 72 76 74 72 74 76 79 79 79 80 76 77 80 85 88 89 89 89 90
58 59 59 59 59 58 58 58 58 58 58 59 58 58 64 65 81 82 82 80 82 82 81 82 79 81 76 74 73 75 74 76 77 78 79 75 77 79 80 84 85 86 86 89 90
58 58 58 58 59 58 58 58 58 58 58 59 59 65 63 73 81 83 83 82 84 83 79 82 83 78 79 72 77 75 69 74 76 77 76 78 72 74 82 84 81 82 85 87 88
58 58 58 58 58 58 58 57 57 57 58 59 59 66 67 81 84 81 84 81 84 84 83 83 83 79 77 78 73 70 70 66 76 74 76 73 67 78 81 81 79 82 83 85 87
58 57 57 58 58 58 57 56 57 58 59 60 63 64 69 73 75 83 84 79 81 81 81 82 81 76 75 70 67 68 64 65 67 76 74 72 68 76 80 79 78 80 82 84 85
58 57 57 57 57 57 56 56 57 60 64 67 67 61 74 74 80 80 84 82 78 78 75 75 76 71 72 68 60 63 63 64 63 71 72 70 70 76 80 79 78 79 81 83 84
58 57 56 57 57 56 58 66 62 60 64 68 71 69 74 80 82 78 81 79 79 75 67 72 67 63 68 69 68 65 63 62 66 72 68 67 68 72 77 78 78 80 81 82 83
57 57 56 56 56 55 63 68 72 72 64 73 71 72 75 77 71 76 82 72 70 66 70 66 62 70 70 68 65 64 62 62 67 70 68 67 66 72 75 76 77 78 79 81 83
56 56 56 56 55 59 69 72 79 77 65 67 69 69 72 76 71 73 78 76 69 66 66 64 67 69 66 65 62 64 61 62 61 67 69 66 63 68 76 78 78 79 80 82 81
56 55 56 55 56 72 71 77 80 76 62 61 65 68 72 76 68 80 82 76 70 65 67 66 72 67 65 63 65 59 68 64 62 60 56 67 52 64 70 72 75 77 79 80 81
55 56 55 54 64 70 73 79 79 73 48 66 66 77 73 69 72 70 83 76 67 66 66 64 64 64 63 65 66 62 66 64 63 60 59 60 57 63 70 67 71 74 76 78 81
55 55 54 61 65 72 77 77 74 58 45 62 68 66 65 68 69 72 72 77 74 68 68 67 73 68 68 67 67 67 64 64 64 61 50 58 57 60 63 65 68 71 74 76 76
55 54 57 68 71 75 76 73 57 52 64 59 62 67 66 63 64 67 66 64 62 55 57 65 67 71 68 63 67 64 59 50 49 51 50 61 55 58 65 66 67 67 70 72 74
53 52 56 70 74 73 73 64 48 55 58 65 64 65 60 63 62 62 62 61 63 62 58 53 52 61 65 63 61 60 58 48 36 43 49 57 48 59 67 67 68 68 70 71 72
52 72 74 73 72 73 68 54 55 57 60 60 63 59 59 60 59 58 59 58 60 61 52 52 51 61 62 64 63 58 52 59 47 49 45 53 58 65 65 65 66 67 68 69 70
63 68 70 74 72 70 64 51 57 62 63 63 55 59 54 57 54 52 51 59 57 63 64 58 49 59 61 63 61 59 62 46 52 32 35 49 51 54 60 60 64 65 66 68 70
65 66 71 74 72 68 58 57 59 64 65 59 56 56 57 55 57 53 51 57 61 62 65 61 54 53 57 56 55 55 53 52 50 45 35 37 49 61 60 63 61 65 67 68 68
63 62 72 72 62 65 61 57 53 61 65 62 61 58 57 57 54 54 52 55 63 62 55 60 54 47 53 61 61 59 55 55 42 41 44 43 45 65 64 65 65 66 68 69 69
61 61 73 70 55 59 59 58 60 58 59 58 57 59 60 54 49 55 56 62 62 59 55 58 50 43 48 53 56 53 56 56 53 49 41 37 45 65 66 65 67 66 67 67 68
62 58 64 64 61 53 51 55 54 60 58 58 57 59 56 52 56 51 53 59 61 59 56 58 51 48 44 50 53 48 52 56 54 44 47 49 52 59 62 62 64 65 66 67 68
62 54 54 55 58 52 52 52 51 49 54 56 53 53 50 43 48 50 53 57 59 59 56 55 46 50 53 55 55 53 52 54 52 53 47 51 52 58 61 62 62 64 65 65 65
58 57 62 58 51 49 48 50 48 47 46 48 46 49 47 42 46 43 50 50 49 55 54 55 45 50 47 53 54 50 54 55 55 55 54 54 53 64 66 66 63 62 62 61 62
62 61 58 50 49 47 48 45 44 46 50 53 48 43 42 47 49 49 50 50 51 51 50 50 47 45 41 51 49 45 53 54 55 58 56 50 58 63 61 59 59 59 60 60 61
MSLP
1018.81 1018.40 1017.92 1017.55 1017.23 1016.89 1016.61 1016.38 1016.16 1015.99 1015.93 1015.93 1015.80 1015.64 1015.46 1015.27 1014.94 1013.94 1012.04 1010.38 1010.49 1010.83 1010.79 1009.69 1009.67 1009.32 1008.90 1008.31 1008.31 1007.85 1006.80 1005.44 1005.63 1006.42 1005.93 1006.38 1005.61 1005.52 1006.08 1005.74 1005.30 1005.12 1004.91 1005.01 1005.29
1018.71 1018.31 1017.88 1017.44 1017.07 1016.75 1016.42 1016.22 1016.02 1015.80 1015.71 1015.69 1015.55 1015.45 1015.33 1015.16 1014.05 1011.92 1009.96 1010.40 1010.63 1010.64 1009.56 1008.77 1008.56 1008.66 1008.17 1008.06 1007.92 1007.48 1006.50 1005.73 1005.83 1006.25 1006.33 1006.17 1005.96 1005.77 1005.89 1005.47 1005.15 1005.14 1005.01 1004.95 1005.01
1018.60 1018.14 1017.76 1017.34 1016.93 1016.62 1016.30 1016.00 1015.85 1015.68 1015.54 1015.46 1015.40 1015.26 1015.12 1014.71 1012.57 1008.63 1009.19 1010.15 1010.38 1010.31 1009.02 1008.42 1008.19 1007.93 1007.42 1007.50 1007.47 1007.12 1006.41 1006.11 1006.70 1006.86 1006.59 1006.17 1006.10 1006.27 1005.91 1005.51 1005.25 1005.12 1004.91 1004.96 1004.96
1018.55 1018.04 1017.62 1017.25 1016.93 1016.53 1016.22 1015.83 1015.59 1015.46 1015.36 1015.25 1015.22 1015.13 1014.85 1013.68 1009.94 1008.48 1008.89 1009.93 1010.02 1009.15 1008.73 1008.17 1008.01 1007.45 1006.95 1007.01 1007.17 1007.28 1007.00 1006.68 1006.68 1006.71 1006.85 1006.34 1006.33 1005.87 1005.80 1005.56 1005.51 1005.33 1005.09 1004.94 1004.81
1018.51 1018.03 1017.55 1017.08 1016.75 1016.48 1016.10 1015.71 1015.40 1015.22 1015.16 1015.11 1014.96 1014.92 1014.21 1012.01 1008.80 1008.93 1009.53 1009.88 1009.62 1008.94 1008.08 1007.66 1007.31 1006.87 1006.47 1006.63 1007.34 1007.18 1006.71 1006.98 1006.82 1006.75 1006.58 1006.38 1006.02 1005.74 1005.30 1005.46 1005.42 1005.04 1004.77 1004.66 1004.53
1018.29 1017.84 1017.37 1016.92 1016.49 1016.17 1015.94 1015.61 1015.22 1015.03 1014.84 1014.79 1014.76 1014.71 1013.16 1010.00 1008.90 1009.08 1009.09 1009.37 1008.86 1008.46 1007.84 1007.49 1006.99 1006.96 1006.60 1006.82 1006.94 1006.83 1006.90 1006.71 1006.63 1006.36 1006.16 1006.20 1005.50 1005.40 1005.14 1005.29 1004.99 1004.84 1004.57 1004.36 1004.13
1018.11 1017.66 1017.16 1016.63 1016.17 1015.81 1015.57 1015.35 1015.09 1014.74 1014.56 1014.42 1014.53 1013.94 1012.08 1009.10 1009.04 1009.01 1009.09 1008.71 1008.74 1008.42 1007.99 1008.01 1007.65 1007.35 1006.99 1007.09 1007.24 1007.14 1006.90 1006.50 1006.17 1005.99 1005.81 1006.02 1005.14 1004.43 1004.65 1004.69 1004.74 1004.68 1004.51 1004.22 1004.01
1017.83 1017.34 1016.91 1016.33 1015.81 1015.33 1015.09 1014.97 1014.79 1014.61 1014.35 1014.29 1014.36 1013.34 1010.08 1009.07 1009.07 1008.95 1008.85 1008.78 1008.90 1008.74 1008.14 1008.28 1008.14 1007.34 1006.82 1007.20 1007.24 1006.68 1006.54 1005.30 1004.90 1005.94 1005.79 1006.18 1004.15 1003.71 1004.49 1004.69 1004.42 1004.29 1004.34 1004.10 1003.77
1017.60 1017.15 1016.56 1016.04 1015.48 1015.00 1014.59 1014.40 1014.13 1014.29 1014.22 1014.14 1013.68 1012.42 1008.69 1009.51 1008.88 1008.43 1008.59 1008.23 1008.54 1008.70 1008.67 1008.54 1007.95 1007.21 1007.37 1006.64 1006.26 1006.18 1004.93 1004.98 1004.86 1005.52 1005.45 1005.48 1004.06 1004.13 1004.74 1004.56 1004.24 1004.18 1003.93 1003.70 1003.53
1017.33 1016.76 1016.29 1015.63 1015.18 1014.69 1014.36 1014.01 1013.99 1014.04 1013.88 1013.40 1012.65 1011.55 1008.62 1007.50 1007.72 1008.19 1008.48 1008.33 1008.07 1008.24 1008.36 1008.17 1007.43 1006.86 1006.45 1006.03 1004.83 1004.53 1005.17 1005.24 1005.20 1005.04 1005.15 1004.67 1004.20 1004.00 1004.02 1004.05 1003.67 1003.64 1003.50 1003.25 1003.11
1017.31 1016.44 1015.84 1015.18 1014.68 1014.37 1014.03 1013.34 1013.34 1012.66 1011.93 1009.72 1008.89 1008.29 1007.50 1007.37 1007.71 1007.83 1008.22 1008.16 1007.79 1007.74 1007.14 1007.36 1006.72 1005.81 1005.40 1005.87 1005.94 1006.08 1005.81 1005.34 1005.23 1005.41 1005.25 1004.68 1004.26 1003.83 1003.69 1003.50 1003.26 1003.01 1002.77 1002.70 1002.57
1017.12 1016.29 1015.49 1014.63 1014.06 1013.51 1013.18 1011.09 1009.49 1009.81 1008.86 1008.31 1008.29 1007.91 1007.82 1007.58 1006.98 1007.38 1007.90 1007.63 1007.50 1006.84 1006.94 1007.14 1005.99 1005.55 1006.10 1006.40 1006.60 1006.30 1005.76 1005.26 1005.14 1005.25 1005.31 1004.62 1003.93 1003.58 1003.30 1002.93 1003.02 1002.83 1002.47 1002.12 1001.90
1016.74 1016.13 1015.22 1014.18 1013.67 1013.19 1011.41 1009.89 1009.37 1009.36 1008.20 1007.55 1007.59 1007.17 1007.05 1007.40 1006.49 1006.55 1007.24 1006.86 1006.74 1006.46 1006.46 1005.80 1005.56 1006.27 1006.36 1006.39 1006.34 1005.93 1005.59 1005.29 1005.19 1005.11 1004.96 1004.15 1003.12 1002.51 1002.00 1002.09 1002.47 1002.47 1002.40 1002.14 1001.90
1016.27 1015.61 1015.06 1014.06 1013.29 1011.28 1010.06 1009.59 1009.39 1009.44 1007.38 1006.93 1006.91 1006.83 1006.87 1006.41 1006.31 1006.18 1006.48 1006.42 1006.34 1005.95 1006.00 1005.75 1005.51 1005.98 1006.06 1005.92 1005.97 1005.31 1005.21 1005.72 1005.49 1005.01 1003.76 1003.92 1002.41 1002.28 1001.99 1001.76 1001.86 1001.91 1001.80 1001.83 1001.88
1015.58 1014.90 1014.53 1014.54 1012.38 1010.44 1009.82 1009.58 1009.31 1009.17 1006.15 1005.93 1006.34 1006.80 1006.55 1006.06 1005.74 1006.27 1006.28 1006.26 1005.75 1005.84 1006.29 1004.84 1005.60 1005.75 1005.57 1005.37 1005.91 1005.49 1005.93 1005.86 1005.53 1004.91 1004.29 1003.58 1002.38 1001.50 1001.68 1001.41 1001.46 1001.64 1001.86 1002.16 1001.91
1014.93 1014.10 1013.68 1012.71 1012.26 1010.52 1010.05 1009.68 1009.24 1007.51 1005.46 1005.17 1005.86 1006.03 1006.23 1006.04 1005.73 1006.09 1006.36 1006.53 1006.17 1005.93 1006.04 1005.62 1005.79 1006.07 1005.57 1005.99 1006.34 1006.33 1006.27 1005.74 1005.25 1004.75 1003.71 1002.92 1002.75 1001.48 1001.67 1002.33 1002.67 1002.93 1002.70 1002.55 1002.78
1014.20 1013.34 1012.78 1011.88 1010.52 1010.50 1010.06 1009.01 1007.44 1005.91 1005.94 1005.53 1005.37 1005.53 1005.53 1005.76 1005.99 1005.93 1005.94 1006.13 1005.81 1005.78 1005.31 1004.91 1004.97 1005.35 1006.39 1006.10 1006.28 1006.62 1006.29 1005.11 1004.14 1003.21 1002.37 1002.76 1003.10 1002.40 1002.90 1003.80 1004.18 1003.85 1003.95 1003.90 1003.83
1013.85 1013.12 1012.68 1011.63 1011.01 1010.69 1009.64 1008.21 1006.70 1006.49 1006.02 1006.20 1005.80 1005.65 1005.52 1006.02 1006.34 1006.41 1006.20 1005.95 1006.53 1006.44 1005.95 1005.65 1005.25 1006.01 1006.71 1006.51 1006.14 1006.08 1006.71 1006.22 1005.36 1004.50 1003.83 1004.38 1002.95 1002.34 1003.37 1004.27 1004.66 1004.65 1004.59 1004.32 1004.16
1013.39 1011.95 1011.14 1011.12 1011.04 1010.64 1009.07 1007.55 1006.79 1006.84 1007.10 1006.50 1005.95 1005.62 1005.73 1006.60 1007.19 1007.41 1007.03 1006.91 1007.03 1007.24 1006.99 1006.25 1006.30 1007.21 1007.34 1007.32 1007.41 1006.67 1007.40 1007.62 1007.54 1007.22 1005.80 1003.92 1002.96 1002.74 1003.75 1003.91 1004.20 1004.51 1004.46 1004.47 1004.42
1013.47 1011.82 1011.01 1011.06 1010.96 1010.22 1008.62 1007.95 1007.77 1007.95 1007.56 1006.99 1006.25 1006.38 1006.02 1006.82 1007.89 1008.33 1008.48 1008.01 1007.82 1007.77 1007.81 1007.26 1006.98 1007.05 1007.44 1008.03 1008.20 1007.98 1008.07 1008.39 1008.18 1007.96 1006.05 1004.02 1003.43 1002.24 1002.62 1003.69 1004.38 1004.60 1004.49 1004.57 1004.49
1013.18 1011.11 1011.04 1011.00 1010.83 1009.38 1008.31 1008.38 1008.42 1008.56 1008.30 1007.75 1007.30 1007.09 1006.96 1007.35 1007.82 1008.35 1008.66 1008.51 1008.36 1007.99 1008.05 1007.84 1007.98 1007.58 1008.09 1007.49 1007.18 1007.96 1008.25 1008.82 1009.12 1009.15 1007.99 1005.62 1003.69 1003.50 1003.79 1003.92 1004.58 1004.65 1004.50 1004.61 1004.51
1013.05 1010.84 1011.15 1010.83 1010.02 1009.76 1009.03 1009.63 1009.77 1008.90 1008.89 1008.51 1008.25 1008.20 1007.95 1007.84 1008.05 1008.18 1008.44 1008.70 1008.69 1008.76 1008.52 1008.47 1008.30 1007.76 1007.29 1007.34 1008.22 1008.10 1007.93 1008.20 1008.71 1008.77 1008.61 1007.34 1004.52 1004.21 1004.41 1004.36 1004.57 1004.39 1004.27 1004.49 1004.52
1013.19 1012.10 1011.28 1010.84 1010.18 1010.22 1010.44 1010.12 1010.02 1009.73 1009.55 1009.27 1008.88 1009.00 1008.89 1009.10 1008.92 1008.29 1008.41 1008.81 1009.34 1009.26 1008.87 1008.98 1008.78 1007.91 1007.13 1008.02 1008.38 1007.95 1007.92 1008.30 1008.73 1009.12 1008.17 1007.14 1004.68 1004.24 1003.98 1004.05 1004.06 1004.07 1004.14 1004.42 1004.39
1013.56 1011.99 1011.55 1011.75 1012.40 1012.24 1011.73 1010.77 1010.54 1010.75 1010.51 1010.69 1010.18 1010.01 1009.95 1009.85 1009.84 1009.36 1009.13 1009.19 1009.46 1009.72 1010.03 1009.63 1009.00 1008.38 1007.39 1006.44 1007.44 1007.83 1007.74 1007.73 1007.73 1007.43 1006.56 1005.44 1004.15 1003.91 1003.80 1003.76 1003.87 1004.09 1004.22 1004.33 1004.07
1013.99 1013.86 1014.30 1012.35 1012.39 1013.17 1013.04 1012.28 1011.83 1011.62 1011.90 1011.78 1011.11 1011.02 1011.06 1011.13 1010.78 1010.22 1010.32 1009.79 1009.80 1009.95 1010.29 1010.09 1009.10 1008.72 1007.88 1007.62 1007.38 1007.26 1007.09 1006.99 1006.67 1006.47 1006.05 1004.90 1004.32 1004.03 1003.97 1003.86 1004.51 1004.55 1004.40 1004.09 1003.88
1014.35 1014.02 1014.06 1013.77 1013.99 1013.92 1013.78 1013.01 1013.11 1013.36 1013.58 1012.58 1012.71 1012.58 1012.81 1012.76 1012.18 1011.94 1011.34 1011.04 1010.70 1010.52 1010.25 1010.17 1009.42 1008.97 1008.18 1007.90 1007.44 1006.67 1006.28 1005.99 1005.85 1005.63 1005.29 1004.94 1004.22 1004.02 1003.64 1003.88 1004.12 1004.39 1004.54 1004.36 1003.94
1015.76 1015.61 1014.88 1014.37 1014.23 1014.38 1014.12 1014.53 1014.44 1014.74 1014.00 1013.55 1013.77 1014.05 1013.76 1013.30 1013.54 1013.37 1012.98 1012.67 1012.00 1011.01 1010.44 1010.09 1009.69 1009.04 1008.17 1007.64 1007.54 1006.28 1005.03 1005.13 1005.05 1004.91 1004.93 1004.49 1003.93 1004.26 1004.22 1004.53 1004.94 1004.95 1004.80 1004.31 1003.78
Wind_Speed
17 16 15 14 13 13 12 12 12 11 11 11 10 9 8 11 13 14 15 3 5 1 9 11 14 13 9 8 7 5 10 13 17 13 13 7 10 6 4 11 10 10 11 9 10
17 17 15 14 13 12 12 11 12 11 10 11 10 9 9 9 14 18 12 5 12 8 10 13 16 16 12 11 8 12 12 16 6 8 9 11 11 11 11 13 13 13 14 13 9
18 17 16 15 13 12 11 10 11 11 10 9 9 8 9 11 10 3 8 13 14 16 8 5 12 15 11 9 9 11 13 10 9 13 14 15 13 13 13 15 15 15 13 13 14
19 18 17 15 14 13 11 10 9 10 9 8 8 7 8 7 2 8 5 15 13 10 12 11 13 12 11 12 12 9 13 11 12 11 13 17 14 14 13 14 13 15 15 14 15
18 19 18 17 15 13 12 10 9 7 8 8 7 6 9 8 1 8 11 13 13 10 12 12 13 10 11 11 10 13 8 9 12 12 12 14 16 16 16 11 14 12 12 13 14
17 18 19 18 16 13 12 11 9 8 7 6 6 6 8 7 4 8 12 13 9 11 9 8 6 6 6 8 14 7 6 9 9 11 11 13 16 14 8 8 12 12 12 12 13
18 18 19 18 17 15 12 11 11 8 8 5 4 8 7 5 2 8 11 7 9 7 9 4 3 9 10 7 5 6 9 10 12 13 10 8 16 18 12 10 9 11 11 13 13
18 18 19 19 18 16 14 12 11 10 7 5 5 6 6 3 2 9 9 7 8 4 2 4 2 3 5 6 7 10 7 12 9 6 6 6 12 6 2 8 10 13 12 12 14
19 19 19 20 19 17 15 13 12 8 8 8 8 6 2 6 7 11 11 7 8 6 3 4 6 3 8 11 9 9 11 8 4 8 7 11 10 4 8 15 14 13 14 13 11
19 19 19 20 19 15 9 11 7 12 8 7 5 7 6 7 9 8 10 6 9 10 7 9 8 9 9 10 10 5 10 8 10 3 9 14 16 15 12 13 14 13 13 12 13
21 21 20 21 19 16 9 5 7 8 8 8 0 4 5 4 6 9 10 10 8 11 12 9 10 11 10 7 7 6 8 11 9 10 13 15 16 16 15 16 16 15 14 14 16
22 22 21 22 21 11 9 6 4 6 7 10 10 9 7 1 7 10 11 13 11 13 9 8 13 7 4 6 9 11 12 12 10 9 10 16 18 17 18 19 16 16 16 18 17
22 22 22 22 23 5 7 7 2 5 7 2 4 5 7 10 5 13 17 16 12 13 12 13 7 6 6 9 10 12 12 11 13 13 14 20 18 17 12 11 13 16 17 18 19
23 22 21 24 8 3 5 2 5 4 7 6 5 4 7 7 6 7 13 10 7 10 9 9 9 9 9 8 10 12 4 8 13 14 14 14 17 17 15 15 15 15 16 14 18
24 24 21 14 10 5 6 6 5 5 5 5 6 7 6 8 6 7 11 9 10 7 7 6 6 8 10 8 3 12 5 12 15 17 19 18 17 14 16 15 14 15 14 18 18
26 27 23 4 5 6 7 7 5 8 3 5 6 6 9 8 3 6 9 8 3 11 12 14 3 7 8 3 6 6 13 17 17 14 15 15 11 6 11 16 17 17 17 14 14
30 28 9 3 3 6 7 5 6 5 2 3 4 4 5 6 6 5 9 10 10 8 13 14 13 10 5 13 10 10 13 11 11 11 12 7 11 12 13 10 15 10 10 10 9
31 21 3 4 7 7 5 5 5 2 3 2 1 3 4 1 5 2 4 8 5 7 9 8 11 4 3 9 12 3 8 8 9 11 16 18 8 2 11 2 5 5 8 10 11
28 2 1 7 5 4 6 6 4 2 5 5 4 7 6 4 3 5 3 7 2 5 7 5 7 4 1 2 4 6 9 7 10 15 14 11 10 8 6 3 4 9 9 9 11
7 4 7 10 4 6 5 3 2 4 5 4 6 3 5 7 4 3 4 6 5 6 4 3 11 5 5 5 4 9 5 5 6 6 8 8 15 10 3 8 10 10 14 13 13
5 4 7 9 4 6 4 4 1 2 7 6 5 9 6 5 10 9 7 6 8 6 7 5 6 5 5 11 9 8 10 6 5 4 5 9 6 6 11 12 7 12 15 14 13
5 3 7 7 5 1 2 4 1 3 4 7 6 6 9 10 14 14 13 9 5 7 10 6 6 10 11 4 5 9 10 10 8 9 8 12 17 5 10 10 10 20 15 15 13
6 3 4 6 3 1 2 4 4 6 5 5 5 5 6 9 6 11 11 7 8 8 5 6 6 9 10 8 7 8 9 9 11 10 14 13 13 5 11 16 16 16 14 12 14
5 3 3 4 4 6 6 5 6 1 6 7 9 7 9 10 12 6 6 7 5 7 6 6 12 11 11 12 4 9 11 12 14 14 16 17 22 19 16 18 17 16 13 15 15
3 4 4 3 3 7 5 5 9 6 3 5 5 6 6 5 10 14 15 12 7 8 10 7 14 15 16 16 15 16 17 17 20 20 21 21 23 21 20 15 15 16 18 19 19
5 4 1 1 5 6 0 1 7 3 3 3 5 9 4 7 10 9 8 9 9 6 10 7 11 13 15 16 16 20 21 21 20 20 22 22 23 20 12 15 19 18 19 20 22
2 1 5 4 2 4 1 3 4 6 7 8 4 6 9 12 9 13 12 12 14 12 9 10 7 9 13 7 10 15 16 11 11 12 14 16 15 17 19 19 18 18 22 25 26
Wind_Direction
344 341 338 333 328 323 316 311 305 302 302 297 298 298 299 304 295 256 251 258 192 135 213 149 177 187 194 190 209 232 236 237 223 229 241 252 253 166 293 276 271 277 286 305 322
347 343 340 336 330 324 320 314 306 302 297 296 298 306 303 304 285 263 245 229 216 220 192 174 173 175 186 196 190 213 226 235 247 235 241 238 258 280 283 268 265 261 270 273 284
347 345 341 337 332 325 316 313 308 303 297 299 302 303 299 288 264 178 156 200 211 205 198 193 166 183 175 182 184 206 242 230 235 247 256 266 267 263 265 264 270 278 284 289 286
351 347 344 341 330 323 314 309 304 303 300 301 301 300 295 267 345 22 175 171 165 193 174 163 173 183 186 193 182 212 233 244 247 254 249 261 272 266 257 266 274 275 273 274 275
346 346 346 342 336 322 313 304 300 300 300 298 301 302 264 228 307 71 134 154 178 177 176 177 182 191 198 190 180 228 209 229 245 251 255 267 262 268 269 275 272 274 274 270 266
343 342 346 341 335 328 313 303 289 280 281 284 292 279 260 245 76 132 150 164 173 192 178 195 194 222 156 176 212 182 224 227 243 251 250 257 269 258 247 243 263 273 275 273 270
339 340 342 340 336 326 316 299 290 267 260 260 259 258 259 332 60 154 169 183 171 193 171 132 143 207 159 165 163 179 228 220 241 248 259 295 262 250 245 261 268 270 275 279 267
335 335 338 341 336 329 317 308 288 264 239 210 204 252 271 118 157 181 186 160 173 156 144 142 217 158 247 98 183 221 240 245 157 228 214 240 268 263 348 276 268 278 279 276 274
333 332 333 335 337 331 317 310 291 222 198 177 206 243 167 133 208 185 196 173 166 180 164 151 233 230 187 214 209 197 254 216 243 195 260 234 285 297 268 287 281 279 279 276 274
332 331 329 329 330 334 320 315 129 155 182 196 265 242 210 167 142 157 184 187 174 159 165 206 212 220 217 221 241 219 231 208 255 218 247 270 271 274 276 283 283 286 280 275 277
331 327 329 325 323 319 277 189 199 186 215 263 107 323 151 123 159 182 174 186 179 202 210 206 228 219 221 226 295 261 261 263 270 272 274 274 279 282 284 283 279 276 273 271 273
327 324 327 324 327 323 213 240 10 2 291 216 262 251 263 137 171 158 182 193 200 212 205 200 231 257 238 223 231 241 251 257 268 258 271 280 279 286 279 274 276 274 276 279 277
323 323 324 324 326 239 241 260 342 323 263 162 187 214 193 205 197 164 193 207 207 218 209 253 85 94 181 197 228 232 258 278 289 304 275 263 279 275 267 247 248 265 273 273 272
320 321 324 331 283 348 232 169 264 299 263 123 166 134 174 189 213 189 208 197 208 227 209 247 230 235 239 240 236 266 279 270 286 288 290 327 290 281 283 282 281 284 290 277 287
318 318 320 318 309 241 52 327 314 217 217 116 104 133 162 206 114 173 197 214 241 190 227 114 173 207 241 266 254 278 331 289 294 288 292 282 276 291 292 285 302 326 321 309 300
318 319 324 203 219 283 306 307 224 230 120 110 124 146 166 193 129 124 187 225 303 245 228 272 262 277 292 346 268 311 274 276 274 270 266 275 278 296 313 335 319 322 305 323 354
324 326 313 274 33 333 304 227 225 282 168 105 101 172 186 155 198 239 190 199 230 223 237 239 237 237 249 258 207 248 268 273 267 236 263 6 299 284 322 1 326 320 331 330 330
329 320 127 321 307 304 255 238 255 61 23 32 272 158 174 166 105 325 239 230 213 264 281 284 271 182 140 256 288 271 305 279 288 287 310 317 263 272 341 185 341 340 336 342 339
317 327 358 9 356 268 255 243 21 25 348 316 256 237 166 153 266 316 270 296 316 218 243 258 246 115 181 226 270 153 244 1 295 269 258 254 247 259 98 199 330 334 335 339 332
316 300 37 340 284 267 255 358 135 36 322 280 278 307 242 187 238 180 238 300 299 264 247 250 270 166 126 220 201 270 63 236 219 280 284 298 305 291 314 357 330 330 337 330 328
274 250 28 344 269 249 290 52 188 42 352 318 318 287 254 234 229 204 229 222 232 231 248 259 245 159 207 210 257 178 219 218 288 243 282 298 293 57 313 300 297 297 329 315 322
304 240 15 334 250 298 309 354 357 294 309 288 271 278 288 280 254 246 241 244 283 300 250 230 278 266 266 74 302 280 270 240 224 236 227 282 284 332 347 336 288 295 317 316 313
341 321 12 308 306 332 345 282 298 312 323 313 296 291 267 268 280 247 236 233 225 230 255 187 238 253 214 191 202 240 216 243 230 257 260 271 272 300 276 312 312 313 308 308 307
307 299 81 57 54 340 342 291 276 343 295 298 291 272 267 256 244 265 242 194 206 243 6 269 255 255 266 320 158 238 240 238 239 243 265 260 279 290 297 308 320 312 315 302 301
8 65 12 352 33 343 302 307 293 307 332 327 281 284 317 268 270 244 237 242 250 224 261 275 252 250 262 273 279 268 261 259 249 256 261 279 287 297 298 321 306 300 295 302 304
336 338 185 2 321 330 286 359 317 349 284 279 279 314 320 282 291 304 297 247 250 269 233 224 264 268 270 266 262 269 267 262 261 265 267 274 280 277 293 300 303 313 311 303 299
74 147 290 124 2 298 353 351 317 332 286 279 336 332 296 285 294 286 287 269 269 277 278 247 246 240 266 269 287 266 263 264 275 273 275 273 299 321 303 319 312 305 303 299 298